TimeEST,TemperatureF,Dew PointF,Humidity,Sea Level PressureIn,VisibilityMPH,Wind Direction,Wind SpeedMPH,Gust SpeedMPH,PrecipitationIn,Events,Conditions,WindDirDegrees,DateUTC
12:16 AM,28.8,28.0,97,30.20,3.0,NW,3.5,-,N/A,Snow,Light Snow,320,2013-03-07 05:16:00
12:36 AM,28.4,27.5,96,30.20,3.0,NW,5.8,-,N/A,Snow,Light Snow,320,2013-03-07 05:36:00
12:57 AM,27.5,26.6,96,30.20,3.0,WNW,6.9,-,N/A,Snow,Light Snow,300,2013-03-07 05:57:00
1:16 AM,27.0,26.1,96,30.20,3.0,WNW,6.9,-,N/A,Snow,Light Snow,300,2013-03-07 06:16:00
1:36 AM,26.6,26.1,98,30.20,2.5,NW,4.6,-,N/A,Snow,Light Snow,310,2013-03-07 06:36:00
1:56 AM,26.6,26.1,98,30.21,2.5,WNW,3.5,-,N/A,Snow,Light Snow,300,2013-03-07 06:56:00
2:16 AM,26.2,25.5,97,30.21,3.0,WNW,4.6,-,N/A,Snow,Light Snow,300,2013-03-07 07:16:00
2:37 AM,25.7,24.8,96,30.21,7.0,WNW,3.5,-,N/A,Snow,Light Snow,300,2013-03-07 07:37:00
2:56 AM,25.7,24.8,96,30.21,5.0,NW,4.6,-,N/A,Snow,Light Snow,310,2013-03-07 07:56:00
3:16 AM,25.5,24.4,96,30.22,7.0,WNW,6.9,-,N/A,Snow,Light Snow,290,2013-03-07 08:16:00
3:36 AM,25.3,23.9,94,30.22,10.0,WNW,5.8,-,N/A,Snow,Light Snow,290,2013-03-07 08:36:00
3:56 AM,25.0,23.7,95,30.23,7.0,NW,4.6,-,N/A,Snow,Light Snow,310,2013-03-07 08:56:00
4:17 AM,24.8,23.7,96,30.23,7.0,WNW,6.9,-,N/A,Snow,Light Snow,300,2013-03-07 09:17:00
4:36 AM,24.8,23.7,96,30.23,7.0,WNW,8.1,-,N/A,Snow,Light Snow,290,2013-03-07 09:36:00
4:56 AM,24.8,23.7,96,30.23,4.0,WNW,5.8,-,N/A,Snow,Light Snow,300,2013-03-07 09:56:00
5:16 AM,24.8,23.5,95,30.24,7.0,NW,5.8,-,N/A,Snow,Light Snow,310,2013-03-07 10:16:00
5:36 AM,24.8,23.5,95,30.24,7.0,NW,3.5,-,N/A,Snow,Light Snow,320,2013-03-07 10:36:00
5:56 AM,24.8,23.7,96,30.24,7.0,Calm,Calm,-,N/A,Snow,Light Snow,0,2013-03-07 10:56:00
6:16 AM,25.2,23.7,94,30.24,7.0,Calm,Calm,-,N/A,Snow,Light Snow,0,2013-03-07 11:16:00
6:36 AM,24.6,23.4,95,30.25,10.0,WNW,5.8,-,N/A,,Overcast,290,2013-03-07 11:36:00
6:57 AM,23.9,22.8,96,30.25,10.0,WNW,3.5,-,N/A,,Overcast,290,2013-03-07 11:57:00
7:16 AM,23.7,22.3,94,30.26,10.0,WNW,4.6,-,N/A,,Overcast,300,2013-03-07 12:16:00
7:36 AM,23.5,21.9,94,30.26,10.0,NW,4.6,-,N/A,,Overcast,310,2013-03-07 12:36:00
7:57 AM,23.5,21.2,91,30.27,10.0,WNW,4.6,-,N/A,,Overcast,290,2013-03-07 12:57:00
8:16 AM,23.0,20.3,89,30.28,10.0,WNW,4.6,-,N/A,,Mostly Cloudy,290,2013-03-07 13:16:00
8:36 AM,23.9,20.3,86,30.28,10.0,WNW,5.8,-,N/A,,Scattered Clouds,290,2013-03-07 13:36:00
8:57 AM,24.8,20.3,83,30.29,10.0,WNW,4.6,-,N/A,,Scattered Clouds,290,2013-03-07 13:57:00
9:16 AM,25.5,20.7,82,30.29,10.0,WNW,4.6,-,N/A,,Clear,300,2013-03-07 14:16:00
9:36 AM,26.4,21.2,81,30.29,10.0,West,5.8,-,N/A,,Scattered Clouds,280,2013-03-07 14:36:00
9:56 AM,27.3,21.7,80,30.29,10.0,West,5.8,-,N/A,,Clear,280,2013-03-07 14:56:00
10:16 AM,28.8,22.6,78,30.30,10.0,West,5.8,-,N/A,,Scattered Clouds,280,2013-03-07 15:16:00
10:36 AM,28.9,22.8,78,30.30,10.0,West,6.9,-,N/A,,Overcast,270,2013-03-07 15:36:00
10:56 AM,29.8,23.4,77,30.30,10.0,West,6.9,-,N/A,,Mostly Cloudy,280,2013-03-07 15:56:00
11:16 AM,29.7,23.4,77,30.30,10.0,WNW,9.2,-,N/A,,Mostly Cloudy,290,2013-03-07 16:16:00
11:36 AM,30.9,23.9,75,30.30,10.0,West,6.9,-,N/A,,Overcast,280,2013-03-07 16:36:00
11:56 AM,32.0,24.6,74,30.30,10.0,WNW,9.2,-,N/A,,Overcast,290,2013-03-07 16:56:00
12:16 PM,32.0,24.6,74,30.31,10.0,NNW,5.8,-,N/A,,Overcast,330,2013-03-07 17:16:00
12:36 PM,31.1,24.6,77,30.31,10.0,WNW,6.9,-,N/A,,Overcast,290,2013-03-07 17:36:00
12:57 PM,30.9,24.3,76,30.31,10.0,WNW,9.2,17.3,N/A,,Overcast,290,2013-03-07 17:57:00
1:16 PM,31.5,24.4,75,30.31,10.0,WNW,10.4,-,N/A,,Overcast,290,2013-03-07 18:16:00
1:37 PM,31.8,24.6,75,30.31,10.0,WNW,10.4,-,N/A,,Overcast,290,2013-03-07 18:37:00
1:56 PM,32.0,25.2,76,30.30,10.0,West,8.1,16.1,N/A,,Mostly Cloudy,280,2013-03-07 18:56:00
2:16 PM,32.0,25.0,75,30.31,10.0,WNW,8.1,-,N/A,,Mostly Cloudy,290,2013-03-07 19:16:00
2:37 PM,32.0,25.0,75,30.31,10.0,WNW,8.1,-,N/A,,Overcast,290,2013-03-07 19:37:00
2:56 PM,32.0,25.2,76,30.31,10.0,WNW,8.1,-,N/A,,Overcast,300,2013-03-07 19:56:00
3:16 PM,31.8,25.2,76,30.31,10.0,West,8.1,-,N/A,,Overcast,280,2013-03-07 20:16:00
3:37 PM,32.0,25.0,75,30.31,10.0,WNW,6.9,-,N/A,,Scattered Clouds,300,2013-03-07 20:37:00
3:56 PM,32.0,24.8,75,30.32,10.0,WNW,9.2,-,N/A,,Clear,290,2013-03-07 20:56:00
4:16 PM,32.2,25.3,76,30.32,10.0,WNW,4.6,-,N/A,,Clear,300,2013-03-07 21:16:00
4:36 PM,32.0,25.2,76,30.32,10.0,WNW,6.9,-,N/A,,Clear,290,2013-03-07 21:36:00
4:56 PM,31.8,25.0,76,30.32,10.0,WNW,6.9,-,N/A,,Clear,290,2013-03-07 21:56:00
5:17 PM,31.1,25.0,78,30.33,10.0,West,6.9,-,N/A,,Clear,280,2013-03-07 22:17:00
5:36 PM,30.4,24.8,80,30.33,10.0,WNW,6.9,-,N/A,,Clear,290,2013-03-07 22:36:00
5:56 PM,29.8,24.8,81,30.34,10.0,WNW,6.9,-,N/A,,Scattered Clouds,300,2013-03-07 22:56:00
6:16 PM,28.8,24.6,84,30.35,10.0,WNW,9.2,-,N/A,,Clear,300,2013-03-07 23:16:00
6:36 PM,28.0,24.4,86,30.36,10.0,WNW,5.8,-,N/A,,Clear,300,2013-03-07 23:36:00
6:56 PM,27.5,24.1,87,30.36,10.0,WNW,5.8,-,N/A,,Clear,290,2013-03-07 23:56:00
8:36 PM,25.5,23.0,90,30.38,10.0,WNW,4.6,-,N/A,,Clear,290,2013-03-08 01:36:00
8:56 PM,25.3,23.2,91,30.38,10.0,WNW,5.8,-,N/A,,Clear,290,2013-03-08 01:56:00
9:16 PM,25.2,23.2,92,30.38,10.0,WNW,4.6,-,N/A,,Clear,290,2013-03-08 02:16:00
9:36 PM,24.8,23.0,93,30.38,10.0,WNW,3.5,-,N/A,,Clear,300,2013-03-08 02:36:00
9:56 PM,24.6,23.0,94,30.38,10.0,NW,3.5,-,N/A,,Clear,310,2013-03-08 02:56:00
10:17 PM,24.6,23.0,94,30.38,10.0,WNW,3.5,-,N/A,,Clear,300,2013-03-08 03:17:00
10:36 PM,24.6,23.0,94,30.38,10.0,WNW,4.6,-,N/A,,Clear,290,2013-03-08 03:36:00
10:56 PM,24.8,23.0,93,30.38,10.0,NW,3.5,-,N/A,,Clear,310,2013-03-08 03:56:00
11:17 PM,24.3,22.8,94,30.39,10.0,WNW,8.1,-,N/A,,Scattered Clouds,300,2013-03-08 04:17:00
11:36 PM,24.8,23.0,93,30.39,10.0,NW,4.6,-,N/A,,Scattered Clouds,310,2013-03-08 04:36:00
11:56 PM,24.6,23.0,94,30.39,10.0,WNW,3.5,-,N/A,,Scattered Clouds,300,2013-03-08 04:56:00